ON7HN-2 Weather Reports


time (UTC)temp
C
wind
direction
speed
KPH
gust
KPH
rain 1hr
cm
rain 24hr
cm
rain mn
cm
humidity
%
barometer
mb
20260507114005 15 347 0.0 0.0 0.00 0.00 0.00 58 1014.7
20260507113505 15 8 0.0 1.6 0.00 0.00 0.00 60 1014.7
20260507113006 15 9 3.2 4.8 0.00 0.00 0.00 59 1015.0
20260507112505 15 215 3.2 6.4 0.00 0.00 0.00 59 1014.8
20260507112005 14 205 0.0 1.6 0.00 0.00 0.00 60 1015.0
20260507111506 15 340 3.2 4.8 0.00 0.00 0.00 61 1014.9
20260507111005 16 134 0.0 3.2 0.00 0.00 0.00 57 1015.2
20260507110505 15 67 0.0 1.6 0.00 0.00 0.00 59 1015.1
20260507110005 16 20 0.0 0.0 0.00 0.00 0.00 58 1015.2
20260507105510 15 183 3.2 4.8 0.00 0.00 0.00 59 1015.1
20260507105006 14 358 0.0 0.0 0.00 0.00 0.00 62 1015.3
20260507104511 15 144 0.0 3.2 0.00 0.00 0.00 59 1015.2
20260507104006 14 253 3.2 3.2 0.00 0.00 0.00 61 1015.1
20260507103505 14 345 0.0 1.6 0.00 0.00 0.00 61 1015.3
20260507103010 14 229 3.2 6.4 0.00 0.00 0.00 61 1015.1
20260507102510 14 178 0.0 1.6 0.00 0.00 0.00 62 1015.2
20260507102007 15 291 1.6 1.6 0.00 0.00 0.00 62 1015.3
20260507101507 13 105 1.6 3.2 0.00 0.00 0.00 64 1015.2
20260507101006 13 303 1.6 3.2 0.00 0.00 0.00 65 1015.1
20260507100506 13 197 1.6 3.2 0.00 0.00 0.00 67 1015.2
20260507100005 13 332 0.0 0.0 0.00 0.00 0.00 66 1015.2
20260507095511 13 218 3.2 3.2 0.00 0.00 0.00 67 1015.0
20260507095006 13 355 1.6 3.2 0.00 0.00 0.00 67 1015.2
20260507094506 12 213 3.2 4.8 0.00 0.00 0.00 68 1015.0
20260507094011 12 235 0.0 1.6 0.00 0.00 0.00 70 1015.2
20260507093506 13 232 3.2 3.2 0.00 0.00 0.00 69 1015.3
20260507093006 13 29 0.0 0.0 0.00 0.00 0.00 68 1015.3
20260507092510 12 346 1.6 1.6 0.00 0.00 0.00 68 1015.0
20260507092011 12 3 0.0 1.6 0.00 0.00 0.00 70 1015.2
20260507091510 12 22 1.6 1.6 0.00 0.00 0.00 71 1015.1
20260507091006 12 13 0.0 0.0 0.00 0.00 0.00 71 1015.1
20260507090506 12 17 1.6 3.2 0.00 0.00 0.00 72 1015.0
20260507090006 12 9 0.0 1.6 0.00 0.00 0.00 74 1015.0
20260507085505 12 14 0.0 1.6 0.00 0.00 0.00 73 1014.8
20260507085010 12 43 0.0 0.0 0.00 0.00 0.00 75 1015.2
20260507084505 11 6 0.0 0.0 0.00 0.00 0.00 76 1015.1
20260507084006 11 32 0.0 1.6 0.00 0.00 0.00 77 1015.1
20260507083505 11 27 0.0 1.6 0.00 0.00 0.00 78 1015.2
20260507083011 11 15 1.6 1.6 0.00 0.00 0.00 79 1015.1
20260507082505 11 16 0.0 0.0 0.00 0.00 0.00 79 1015.0
20260507082005 11 14 0.0 1.6 0.00 0.00 0.00 79 1014.5
20260507081506 11 26 1.6 3.2 0.00 0.00 0.00 80 1014.9
20260507081006 11 31 0.0 1.6 0.00 0.00 0.00 82 1014.8
20260507080506 10 83 3.2 4.8 0.00 0.00 0.00 82 1014.7
20260507080010 10 64 1.6 3.2 0.00 0.00 0.00 84 1014.5
20260507075506 10 36 0.0 1.6 0.00 0.00 0.00 85 1014.9
20260507075005 10 4 1.6 3.2 0.00 0.00 0.00 85 1015.0
20260507074505 10 63 3.2 4.8 0.00 0.00 0.00 85 1014.8
20260507074005 10 6 0.0 1.6 0.00 0.00 0.00 86 1014.8
20260507073505 10 32 1.6 3.2 0.00 0.00 0.00 86 1014.6
20260507073005 10 27 0.0 1.6 0.00 0.00 0.00 86 1014.6
20260507072510 10 45 3.2 4.8 0.00 0.00 0.00 86 1014.8
20260507072006 10 19 0.0 1.6 0.00 0.00 0.00 86 1014.3
20260507071505 10 30 0.0 1.6 0.00 0.00 0.00 86 1014.5
20260507071005 10 28 1.6 3.2 0.00 0.00 0.00 86 1014.6
20260507070505 10 79 0.0 1.6 0.00 0.00 0.00 88 1014.4
20260507070010 10 25 0.0 1.6 0.00 0.00 0.00 91 1014.4
20260507065505 9 29 0.0 0.0 0.00 0.00 0.00 93 1014.5
20260507065005 9 14 0.0 0.0 0.00 0.00 0.00 93 1014.7
20260507064505 9 20 0.0 0.0 0.00 0.00 0.00 94 1014.2
20260507064005 9 13 0.0 0.0 0.00 0.00 0.00 94 1014.2
20260507063510 9 10 0.0 0.0 0.00 0.00 0.00 94 1014.4
20260507063005 8 358 0.0 0.0 0.00 0.00 0.00 94 1014.4
20260507062505 8 1 0.0 0.0 0.00 0.00 0.00 94 1014.6
20260507062005 8 2 0.0 0.0 0.00 0.00 0.00 94 1014.3
20260507061510 8 346 0.0 1.6 0.00 0.00 0.00 95 1014.2
20260507061005 8 10 0.0 0.0 0.00 0.00 0.00 95 1014.2
20260507060510 8 18 0.0 0.0 0.00 0.00 0.00 96 1014.2
20260507060005 8 22 0.0 0.0 0.00 0.00 0.00 96 1014.3
20260507055505 8 38 0.0 0.0 0.00 0.00 0.00 96 1013.9
20260507055005 8 19 0.0 1.6 0.00 0.00 0.00 96 1013.9
20260507054510 8 37 1.6 1.6 0.00 0.00 0.00 96 1014.0
20260507054005 8 30 1.6 3.2 0.00 0.00 0.00 96 1014.1
20260507053506 7 21 0.0 1.6 0.00 0.00 0.00 96 1014.0
20260507053011 7 28 0.0 0.0 0.00 0.00 0.00 96 1013.7
20260507052506 7 11 1.6 3.2 0.00 0.00 0.00 96 1013.9
20260507052006 8 19 0.0 1.6 0.00 0.00 0.00 96 1013.8
20260507051506 7 23 0.0 0.0 0.00 0.00 0.00 95 1013.9
20260507051006 7 16 0.0 1.6 0.00 0.00 0.00 95 1013.5
20260507050505 7 41 1.6 1.6 0.00 0.00 0.00 95 1013.5
20260507050005 7 13 0.0 0.0 0.00 0.00 0.00 95 1013.4
20260507045506 7 5 0.0 0.0 0.00 0.00 0.00 95 1013.5
20260507045006 7 352 0.0 0.0 0.00 0.00 0.00 95 1013.4
20260507044506 7 358 0.0 0.0 0.00 0.00 0.00 95 1013.5
20260507044006 7 2 0.0 0.0 0.00 0.00 0.00 95 1013.3
20260507043505 7 13 0.0 0.0 0.00 0.00 0.00 95 1013.3
20260507043005 7 13 0.0 0.0 0.00 0.00 0.00 95 1013.3
20260507042506 7 48 0.0 0.0 0.00 0.00 0.00 95 1013.2
20260507042010 7 328 0.0 0.0 0.00 0.00 0.00 95 1013.2
20260507041505 7 346 0.0 0.0 0.00 0.00 0.00 95 1013.4
20260507041005 7 39 0.0 0.0 0.00 0.00 0.00 95 1013.2
20260507040506 7 10 0.0 0.0 0.00 0.00 0.00 95 1013.2
20260507040011 7 10 0.0 0.0 0.00 0.00 0.00 95 1013.2
20260507035510 7 346 0.0 0.0 0.00 0.00 0.00 96 1013.0
20260507035005 7 17 0.0 0.0 0.00 0.00 0.00 96 1013.2
20260507034505 7 18 0.0 0.0 0.00 0.00 0.00 96 1013.1
20260507034005 7 353 0.0 0.0 0.00 0.00 0.00 96 1013.2
20260507033510 7 8 0.0 0.0 0.00 0.00 0.00 96 1012.9
20260507033005 7 2 0.0 0.0 0.00 0.00 0.00 96 1013.1
20260507032506 7 17 0.0 0.0 0.00 0.00 0.00 96 1012.9
20260507032006 7 353 0.0 0.0 0.00 0.00 0.00 96 1013.1
20260507031510 7 11 0.0 0.0 0.00 0.00 0.00 96 1012.9
20260507031010 7 12 0.0 0.0 0.00 0.00 0.00 96 1012.9
20260507030505 7 331 0.0 0.0 0.00 0.00 0.00 96 1012.7
20260507030006 7 339 0.0 0.0 0.00 0.00 0.00 96 1013.0
20260507025505 7 359 0.0 0.0 0.00 0.00 0.00 96 1012.6
20260507025005 7 6 0.0 0.0 0.00 0.00 0.00 96 1013.0
20260507024505 7 7 0.0 0.0 0.00 0.00 0.00 96 1012.9
20260507024005 7 13 0.0 0.0 0.00 0.00 0.00 96 1012.9
20260507023510 7 4 0.0 0.0 0.00 0.00 0.00 96 1012.9
20260507023005 7 332 0.0 0.0 0.00 0.00 0.00 96 1012.7
20260507022506 7 5 0.0 0.0 0.00 0.00 0.00 96 1012.8
20260507022006 7 32 0.0 0.0 0.00 0.00 0.00 97 1012.9
20260507021506 7 16 0.0 0.0 0.00 0.00 0.00 96 1013.0
20260507021006 7 357 0.0 0.0 0.00 0.00 0.00 97 1012.7
20260507020505 6 23 0.0 0.0 0.00 0.00 0.00 97 1012.9
20260507020010 6 9 0.0 0.0 0.00 0.00 0.00 97 1012.7
20260507015505 6 33 0.0 0.0 0.00 0.00 0.00 97 1012.5
20260507015005 6 337 0.0 0.0 0.00 0.00 0.00 96 1012.8
20260507014505 6 177 0.0 0.0 0.00 0.00 0.00 96 1012.3
20260507014005 6 221 0.0 0.0 0.00 0.00 0.00 96 1012.7
20260507013506 6 354 0.0 0.0 0.00 0.00 0.00 96 1012.6
20260507013011 6 5 0.0 0.0 0.00 0.00 0.00 96 1012.5
20260507012505 6 0 0.0 0.0 0.00 0.00 0.00 96 1012.7
20260507012010 6 10 0.0 0.0 0.00 0.00 0.00 97 1012.4
20260507011505 6 12 0.0 0.0 0.00 0.00 0.00 97 1012.7
20260507011005 6 14 0.0 0.0 0.00 0.00 0.00 97 1012.6
20260507010505 6 16 0.0 0.0 0.00 0.00 0.00 96 1012.4
20260507010005 6 27 0.0 0.0 0.00 0.00 0.00 96 1012.4
20260507005505 6 10 0.0 0.0 0.00 0.00 0.00 96 1012.5
20260507005006 6 11 0.0 0.0 0.00 0.00 0.00 96 1012.4
20260507004505 7 6 0.0 0.0 0.00 0.00 0.00 96 1012.4
20260507004006 7 351 0.0 0.0 0.00 0.00 0.00 96 1012.6
20260507003505 7 58 0.0 0.0 0.00 0.00 0.00 96 1012.6
20260507003005 6 265 0.0 0.0 0.00 0.00 0.00 95 1012.5
20260507002505 7 346 0.0 0.0 0.00 0.00 0.00 95 1012.7
20260507002005 7 3 0.0 0.0 0.00 0.00 0.00 96 1012.5
20260507001510 7 65 0.0 0.0 0.00 0.00 0.00 95 1012.6
20260507001005 7 17 0.0 0.0 0.00 0.00 0.00 95 1012.4
20260507000515 7 37 0.0 0.0 0.00 0.00 0.00 95 1012.4
20260507000005 7 24 0.0 0.0 0.00 0.00 0.00 95 1012.4
20260506235505 7 17 0.0 0.0 0.00 0.00 0.00 95 1012.2
20260506235005 7 19 0.0 0.0 0.00 0.00 0.00 95 1012.2
20260506234505 7 5 0.0 0.0 0.00 0.00 0.00 95 1012.3
20260506234006 7 8 0.0 0.0 0.00 0.00 0.00 95 1012.2
20260506233505 7 9 0.0 0.0 0.00 0.00 0.00 95 1012.3
20260506233006 7 5 0.0 0.0 0.00 0.00 0.00 95 1012.4
20260506232505 7 15 0.0 0.0 0.00 0.00 0.00 95 1012.3
20260506232005 7 358 0.0 0.0 0.00 0.00 0.00 95 1012.3
20260506231510 7 340 0.0 0.0 0.00 0.00 0.00 94 1012.2
20260506231006 7 333 0.0 0.0 0.00 0.00 0.00 94 1012.0
20260506230505 7 323 0.0 0.0 0.00 0.00 0.00 94 1012.2
20260506230005 8 6 0.0 0.0 0.00 0.00 0.00 95 1012.0
20260506225505 7 6 0.0 0.0 0.00 0.00 0.00 94 1012.1
20260506225005 8 7 0.0 0.0 0.00 0.00 0.00 94 1011.8
20260506224505 8 7 0.0 0.0 0.00 0.00 0.00 94 1012.1
20260506224010 8 7 0.0 0.0 0.00 0.00 0.00 94 1012.0
20260506223505 8 3 0.0 0.0 0.00 0.00 0.00 94 1012.0
20260506223005 8 4 0.0 0.0 0.00 0.00 0.00 94 1011.8
20260506222510 8 5 0.0 0.0 0.00 0.00 0.00 93 1011.9
20260506222005 8 358 0.0 0.0 0.00 0.00 0.00 93 1012.2
20260506221510 8 12 0.0 0.0 0.00 0.00 0.00 93 1011.8
20260506221006 8 12 0.0 0.0 0.00 0.00 0.00 92 1011.9
20260506220505 8 1 0.0 0.0 0.00 0.00 0.00 92 1011.9
20260506220005 8 4 0.0 0.0 0.00 0.00 0.00 92 1011.8
20260506215505 8 10 0.0 0.0 0.00 0.00 0.00 92 1011.9
20260506215006 8 2 0.0 0.0 0.00 0.00 0.00 91 1011.9
20260506214505 8 349 0.0 1.6 0.00 0.00 0.00 91 1011.8
20260506214006 9 346 1.6 3.2 0.00 0.00 0.00 91 1011.6
20260506213505 9 339 3.2 3.2 0.00 0.00 0.00 91 1011.7
20260506213005 9 351 1.6 1.6 0.00 0.00 0.00 91 1011.8
20260506212505 9 347 1.6 1.6 0.00 0.00 0.00 91 1011.4
20260506212006 9 350 1.6 3.2 0.00 0.00 0.00 90 1011.6
20260506211510 9 342 3.2 4.8 0.00 0.00 0.00 90 1011.7
20260506211005 9 12 1.6 1.6 0.00 0.00 0.00 90 1011.4
20260506210506 9 355 3.2 3.2 0.00 0.00 0.00 90 1011.4
20260506210005 10 339 6.4 6.4 0.00 0.00 0.00 89 1011.3
20260506205505 10 331 4.8 6.4 0.00 0.00 0.00 89 1011.4
20260506205005 10 339 3.2 4.8 0.00 0.00 0.00 89 1011.4
20260506204511 10 337 3.2 4.8 0.00 0.00 0.00 89 1011.4
20260506204006 10 340 4.8 6.4 0.00 0.00 0.00 89 1011.2
20260506203506 10 338 6.4 8.0 0.00 0.00 0.00 88 1011.1
20260506203005 10 355 3.2 4.8 0.00 0.00 0.00 88 1011.2
20260506202506 10 349 4.8 6.4 0.00 0.00 0.00 88 1011.1
20260506202005 10 336 4.8 4.8 0.00 0.00 0.00 87 1011.1
20260506201510 10 322 6.4 8.0 0.00 0.00 0.00 87 1011.1
20260506201006 10 326 6.4 8.0 0.00 0.00 0.00 86 1011.2
20260506200510 10 357 6.4 8.0 0.00 0.00 0.00 86 1011.0
20260506200005 10 347 4.8 6.4 0.00 0.00 0.00 86 1010.9
20260506195506 10 327 8.0 9.7 0.00 0.00 0.00 86 1010.9
20260506195005 10 333 6.4 8.0 0.00 0.00 0.00 85 1010.9
20260506194505 10 337 8.0 8.0 0.00 0.00 0.00 84 1010.8
20260506194005 11 340 8.0 8.0 0.00 0.00 0.00 84 1011.1
20260506193505 11 329 6.4 6.4 0.00 0.00 0.00 84 1010.9
20260506193005 11 333 6.4 8.0 0.00 0.00 0.00 84 1010.8
20260506192505 11 342 6.4 6.4 0.00 0.00 0.00 83 1010.6
20260506192006 11 317 9.7 12.9 0.00 0.00 0.00 83 1010.7
20260506191506 11 326 6.4 8.0 0.00 0.00 0.00 82 1010.6
20260506191011 11 338 8.0 9.7 0.00 0.00 0.00 82 1010.5
20260506190506 11 305 8.0 14.5 0.00 0.00 0.00 82 1010.4
20260506190006 11 343 4.8 6.4 0.00 0.00 0.00 82 1010.6
20260506185505 11 328 8.0 8.0 0.00 0.00 0.00 81 1010.6
20260506185005 11 339 9.7 12.9 0.00 0.00 0.00 80 1010.4
20260506184506 11 308 11.3 12.9 0.00 0.00 0.00 79 1010.4
20260506184011 11 335 11.3 16.1 0.00 0.00 0.00 79 1010.3
20260506183505 11 334 12.9 16.1 0.00 0.00 0.00 79 1010.1
20260506183006 11 340 11.3 12.9 0.00 0.00 0.00 77 1010.1
20260506182506 11 4 16.1 19.3 0.00 0.00 0.00 77 1010.3
20260506182011 12 327 12.9 16.1 0.00 0.00 0.00 77 1010.2
20260506181511 12 351 14.5 17.7 0.00 0.00 0.00 76 1010.0
20260506181005 12 339 12.9 16.1 0.00 0.00 0.00 76 1009.9
20260506180505 12 346 8.0 9.7 0.00 0.00 0.00 77 1009.7
20260506180006 12 308 8.0 8.0 0.00 0.00 0.00 75 1009.8
20260506175511 12 338 17.7 20.9 0.00 0.00 0.00 73 1009.7
20260506175006 12 302 6.4 8.0 0.00 0.00 0.00 78 1009.7
20260506174505 12 345 16.1 19.3 0.00 0.00 0.00 76 1009.7
20260506174005 12 329 11.3 14.5 0.00 0.00 0.00 78 1009.5
20260506173505 12 326 16.1 19.3 0.00 0.00 0.00 77 1009.6
20260506173006 12 332 17.7 22.5 0.00 0.00 0.00 77 1009.7
20260506172506 12 347 14.5 17.7 0.00 0.00 0.00 75 1009.5
20260506172005 12 14 9.7 14.5 0.00 0.00 0.00 75 1009.4
20260506171505 12 343 12.9 16.1 0.00 0.00 0.00 75 1009.2
20260506171006 12 42 14.5 16.1 0.00 0.00 0.00 73 1009.2
20260506170506 12 330 16.1 22.5 0.00 0.00 0.00 73 1009.2
20260506170006 13 327 9.7 12.9 0.00 0.00 0.00 72 1009.1
20260506165505 13 334 11.3 16.1 0.00 0.00 0.00 73 1009.2
20260506165005 13 335 14.5 16.1 0.00 0.00 0.00 70 1009.1
20260506164505 13 344 11.3 12.9 0.00 0.00 0.00 71 1009.1
20260506164005 13 23 11.3 16.1 0.00 0.00 0.00 69 1009.0
20260506163505 13 359 14.5 17.7 0.00 0.00 0.00 71 1009.1
20260506163005 13 329 11.3 14.5 0.00 0.00 0.00 71 1008.9
20260506162506 12 341 16.1 19.3 0.00 0.00 0.00 72 1009.0
20260506162005 13 337 16.1 20.9 0.00 0.00 0.00 72 1008.9
20260506161506 13 333 17.7 19.3 0.00 0.00 0.00 71 1008.9
20260506161010 13 343 16.1 17.7 0.00 0.00 0.00 73 1008.9
20260506160510 13 332 9.7 12.9 0.00 0.00 0.00 74 1008.9
20260506160005 13 332 12.9 16.1 0.00 0.00 0.00 73 1008.9
20260506155505 13 325 14.5 17.7 0.00 0.00 0.00 74 1008.8
20260506155005 13 11 11.3 17.7 0.00 0.00 0.00 73 1008.9
20260506154505 13 330 19.3 20.9 0.00 0.00 0.00 73 1008.8
20260506154006 13 345 11.3 16.1 0.00 0.00 0.00 73 1009.0
20260506153506 13 9 11.3 16.1 0.00 0.00 0.00 72 1008.9
20260506153006 14 332 8.0 9.7 0.00 0.00 0.00 72 1008.9
20260506152506 13 333 14.5 16.1 0.00 0.00 0.00 74 1008.9
20260506152011 13 330 12.9 16.1 0.00 0.00 0.00 73 1008.9
20260506151511 13 0 12.9 14.5 0.00 0.00 0.00 73 1008.8
20260506151011 13 332 16.1 17.7 0.00 0.00 0.00 73 1008.9
20260506150506 13 4 16.1 20.9 0.00 0.00 0.00 72 1008.8
20260506150006 13 329 14.5 16.1 0.00 0.00 0.00 71 1008.7
20260506145506 13 324 19.3 19.3 0.00 0.00 0.00 71 1008.9
20260506145005 14 327 12.9 14.5 0.00 0.00 0.00 72 1008.9
20260506144505 14 311 14.5 17.7 0.00 0.00 0.00 72 1008.8
20260506144006 14 351 14.5 17.7 0.00 0.00 0.00 71 1008.9
20260506143505 13 6 12.9 16.1 0.00 0.00 0.00 74 1008.6
20260506143005 13 305 14.5 16.1 0.00 0.00 0.00 73 1008.9
20260506142505 13 353 8.0 9.7 0.00 0.00 0.00 73 1008.9
20260506142005 13 332 11.3 14.5 0.00 0.00 0.00 72 1008.7
20260506141505 13 357 12.9 17.7 0.00 0.00 0.00 72 1008.9
20260506141010 13 329 16.1 19.3 0.00 0.00 0.00 73 1008.7
20260506140510 13 334 14.5 16.1 0.00 0.00 0.00 73 1008.8
20260506140005 13 323 12.9 17.7 0.00 0.00 0.00 73 1008.8
20260506135505 13 332 8.0 9.7 0.00 0.00 0.00 74 1008.9
20260506135005 13 358 12.9 17.7 0.00 0.00 0.00 74 1008.9
20260506134505 13 333 12.9 14.5 0.00 0.00 0.00 73 1008.9
20260506134005 13 2 9.7 12.9 0.00 0.00 0.00 74 1008.9
20260506133506 13 323 11.3 16.1 0.00 0.00 0.00 74 1008.9
20260506133005 13 354 12.9 16.1 0.00 0.00 0.00 75 1008.9
20260506132505 13 330 9.7 12.9 0.00 0.00 0.00 74 1009.0
20260506132005 13 351 9.7 12.9 0.00 0.00 0.00 76 1008.9
20260506131505 13 332 9.7 14.5 0.00 0.00 0.00 77 1008.9
20260506131005 12 343 11.3 14.5 0.00 0.00 0.00 77 1008.7
20260506130505 12 24 12.9 14.5 0.00 0.00 0.00 77 1008.9
20260506130005 12 15 8.0 9.7 0.00 0.00 0.00 78 1008.8
20260506125510 12 343 11.3 14.5 0.00 0.00 0.00 78 1008.8
20260506125011 12 286 8.0 9.7 0.00 0.00 0.00 79 1008.7
20260506124506 12 325 16.1 19.3 0.00 0.00 0.00 79 1008.7
20260506124010 12 312 11.3 12.9 0.00 0.00 0.00 78 1008.9
20260506123506 12 329 11.3 14.5 0.00 0.00 0.00 78 1008.8
20260506123005 12 323 16.1 19.3 0.00 0.00 0.00 77 1008.7
20260506122510 12 317 9.7 12.9 0.00 0.00 0.00 80 1008.9
20260506122005 12 354 9.7 12.9 0.00 0.00 0.00 79 1008.9
20260506121505 12 0 9.7 12.9 0.00 0.00 0.00 79 1008.8
20260506121005 12 11 11.3 14.5 0.00 0.00 0.00 79 1008.7
20260506120505 12 337 11.3 14.5 0.00 0.00 0.00 79 1008.8
20260506120005 12 347 11.3 12.9 0.00 0.00 0.00 81 1008.8
20260506115505 12 340 9.7 12.9 0.00 0.00 0.00 80 1008.8
20260506115005 12 20 8.0 12.9 0.00 0.00 0.00 81 1008.8
20260506114505 12 322 8.0 8.0 0.00 0.00 0.00 80 1008.9